星链-30175 (STARLINK-30175 )

导读 | 豆包AI

STARLINK-30175是美国太空探索技术公司Starlink互联网星座中的一颗卫星,于2023年7月10日发射入轨,归属星链组网,承担低轨卫星互联网的信号传输任务,为全球范围内用户提供宽带互联网接入服务。作为星链批量部署的组成部分,它延续了星链星座模块化、标准化设计,助力星链完成低轨星座的规模扩容。

Basic Information
目录编号:
57311
目录名称:
STARLINK-30175
国际标识:
2023-096X
轨道中心:
EARTH
卫星名称:
星链-30175
卫星全名:
星链-30175 (STARLINK-30175 )
卫星状态:
已陨落 最后检测时间 2026-02-24
发射日期:
2023-07-10 UTC
国别 :
美国 (US)
星等 :
--
Orbit Information
数据来源 国际轨道数据
星历时间: 2026-02-24T13:03:28+0800
轨道信息已过期65天
半长轴: 6583.926km
偏心率: 0.0014892
轨道倾角: 42.958°
近地点辐角 320.242°
升交点赤经 214.747°
平近点角 39.738°
近地点: 195.984km
远地点: 215.594km
周期: 88.611分钟
每日圈数: 16.250824
Detailed Information
固有亮度:
5
最大亮度:
0.3
卫星平台:
Starlink v2.0 mini
覆盖范围:
全球
运营商:
太空探索技术公司
运营商所在国:
美国
制造商(研发单位):
太空探索技术公司
制造商所在国:
美国
使用方式:
暂无
Satellite Introduction
星链(Starlink)计划是由太空探索技术公司(SpaceX)提出的一个巨型低轨卫星互联网星座项目,计划在2019年至2024年间在太空搭建由约1.2万颗卫星组成的“星链”网络,其中1584颗将部署在地球上空550千米处的近地轨道,并从2020年开始工作。该卫星仍在工作。